Date_and_time,latitude,longitude,wind_speed,RelWindDirFrom,WindDirFrom,air_pressure,air_temperature,relative_humidity,Temp,platform_speed_wrt_ground,air_pressure_at_mean_sea_level,platform_orientation
2019-09-22 00:00,53.600365,-98.9254816666667,14.4,17.9,321,976.37,17.2,61,15.99,1.0,1002.20,225.7
2019-09-22 00:10,53.60045,-98.925315,11.4,13.3,316,976.50,17.1,63,15.91,0.0,1002.36,225.7
2019-09-22 00:20,53.6003866666667,-98.9254166666667,10.7,12.9,312,976.60,16.8,66,15.89,0.0,1002.51,225.7
2019-09-22 00:30,53.6002916666667,-98.924975,10.8,13.2,309,976.66,16.7,65,15.87,0.1,1002.59,225.7
2019-09-22 00:40,53.600235,-98.92513,8.9,10.3,305,976.83,16.5,67,15.86,0.0,1002.78,225.7
2019-09-22 00:50,53.6002483333333,-98.9250983333333,8.2,9.5,302,976.90,16.3,68,15.86,0.0,1002.85,225.7
2019-09-22 01:00,53.600275,-98.9250616666667,8.1,9.4,299,977.03,16.1,70,15.86,0.0,1003.00,227.2
2019-09-22 01:10,53.60027,-98.9250566666667,9.2,10.2,302,977.08,16.1,67,15.87,0.0,1003.06,227.2
2019-09-22 01:20,53.6002333333333,-98.9251133333333,8.3,9.2,311,977.19,16.0,67,15.85,0.0,1003.17,227.2
2019-09-22 01:30,53.6002083333333,-98.9251833333333,8.2,10.3,321,977.33,15.9,68,15.85,0.0,1003.30,227.2
2019-09-22 01:40,53.6001716666667,-98.9252466666667,10.4,12.4,332,977.36,15.9,65,15.87,0.0,1003.32,227.2
2019-09-22 01:50,53.6001433333333,-98.92524,12.6,15.9,334,977.35,15.7,65,15.88,0.0,1003.33,227.2
2019-09-22 02:00,53.6001316666667,-98.9253966666667,11.9,14.7,334,977.42,15.5,67,15.85,0.0,1003.42,226.8
2019-09-22 02:10,53.600145,-98.9253533333333,11.9,13.6,339,977.46,15.3,67,15.84,0.0,1003.48,226.8
2019-09-22 02:20,53.6001366666667,-98.925475,10.9,12.5,341,977.54,15.2,70,15.83,0.0,1003.58,226.8
2019-09-22 02:30,53.6001183333333,-98.92554,12.2,13.9,349,977.57,15.1,69,15.80,0.0,1003.62,226.8
2019-09-22 02:40,53.6001316666667,-98.9254083333333,11.4,13.5,352,977.63,14.9,70,15.79,0.0,1003.69,226.8
2019-09-22 02:50,53.6001283333333,-98.9256416666667,10.0,12.3,358,977.74,14.8,72,15.77,0.1,1003.82,226.8
2019-09-22 03:00,53.600175,-98.9257783333333,8.4,10.9,16,977.79,14.7,73,15.75,0.0,1003.88,221.6
2019-09-22 03:10,53.60014,-98.925715,8.6,9.7,21,977.84,14.3,73,15.75,0.0,1003.95,221.6
2019-09-22 03:20,53.6001216666667,-98.9256783333333,9.1,10.6,15,977.87,14.2,73,15.75,0.0,1004.00,221.6
2019-09-22 03:30,53.6001533333333,-98.9258366666667,10.3,11.7,16,977.85,14.2,69,15.73,0.0,1003.97,221.6
2019-09-22 03:40,53.6001516666667,-98.9257166666667,8.6,10.1,17,977.95,14.1,70,15.74,0.0,1004.09,221.6
2019-09-22 03:50,53.6001233333333,-98.9256733333333,8.0,9.4,12,978.04,14.0,69,15.74,0.0,1004.19,221.6
2019-09-22 04:00,53.6001566666667,-98.9257916666667,8.4,9.6,11,978.11,14.0,67,15.75,0.0,1004.28,255.0
2019-09-22 04:10,53.600145,-98.9257783333333,8.4,10.5,14,978.12,14.0,66,15.76,0.0,1004.29,255.0
2019-09-22 04:20,53.6001416666667,-98.9257583333333,8.3,10.5,13,978.18,14.0,67,15.77,0.0,1004.36,255.0
2019-09-22 04:30,53.6001266666667,-98.9255716666667,8.1,10.3,6,978.24,13.9,68,15.79,0.0,1004.43,255.0
2019-09-22 04:40,53.6001466666667,-98.9253583333333,8.1,11.1,334,978.28,13.8,71,15.79,0.0,1004.49,255.0
2019-09-22 04:50,53.600145,-98.9253966666667,7.4,8.5,317,978.36,13.4,78,15.78,0.0,1004.59,255.0
2019-09-22 05:00,53.6001383333333,-98.9254583333333,7.6,8.5,319,978.44,13.0,79,15.77,0.0,1004.71,278.9
2019-09-22 05:10,53.6001366666667,-98.9253866666667,6.8,8.1,322,978.48,12.9,79,15.75,0.0,1004.77,278.9
2019-09-22 05:20,53.6001316666667,-98.92544,8.3,10.4,338,978.44,13.2,77,15.76,0.0,1004.71,278.9
2019-09-22 05:30,53.600135,-98.925435,8.1,9.9,331,978.48,13.2,78,15.75,0.0,1004.75,278.9
2019-09-22 05:40,53.6001366666667,-98.9253883333333,8.6,9.7,332,978.47,13.1,75,15.75,0.0,1004.75,278.9
2019-09-22 05:50,53.6001316666667,-98.9254133333333,9.6,10.9,325,978.45,12.9,75,15.76,0.0,1004.74,278.9
2019-09-22 06:00,53.6001183333333,-98.9254733333333,9.0,10.4,332,978.50,12.7,75,15.77,0.0,1004.80,105.8
2019-09-22 06:10,53.60014,-98.92535,9.8,10.9,334,978.55,12.6,75,15.78,0.0,1004.86,105.8
2019-09-22 06:20,53.6001266666667,-98.9254883333333,10.2,12.3,333,978.63,12.5,75,15.77,0.0,1004.95,105.8
2019-09-22 06:30,53.6001633333333,-98.9254116666667,9.1,10.5,330,978.74,12.2,79,15.77,0.0,1005.08,105.8
2019-09-22 06:40,53.6001216666667,-98.925525,10.3,12.2,343,978.72,12.2,78,15.76,0.0,1005.08,105.8
2019-09-22 06:50,53.6001416666667,-98.92535,10.9,12.5,342,978.80,12.2,75,15.74,0.0,1005.18,105.8
2019-09-22 07:00,53.60011,-98.9254816666667,11.2,13.3,337,978.94,12.0,77,15.69,0.0,1005.33,104.1
2019-09-22 07:10,53.6001433333333,-98.9253233333333,10.5,12.1,337,978.97,11.9,75,15.62,0.0,1005.36,104.1
2019-09-22 07:20,53.6001416666667,-98.9253883333333,9.1,11.2,334,979.02,11.9,74,15.57,0.0,1005.41,104.1
2019-09-22 07:30,53.6001516666667,-98.9253233333333,8.6,10.7,331,979.05,11.8,73,15.53,0.0,1005.45,104.1
2019-09-22 07:40,53.6001483333333,-98.9253616666667,8.6,10.1,325,979.09,11.7,72,15.51,0.0,1005.50,104.1
2019-09-22 07:50,53.6001716666667,-98.9253233333333,8.4,9.9,321,979.10,11.6,73,15.49,0.0,1005.53,104.1
2019-09-22 08:00,53.600165,-98.9253183333333,8.8,10.5,330,979.07,11.6,70,15.47,0.0,1005.50,71.2
2019-09-22 08:10,53.600165,-98.9252966666667,8.3,9.4,324,979.07,11.5,69,15.45,0.0,1005.51,71.2
2019-09-22 08:20,53.6001666666667,-98.9252916666667,7.7,9.3,324,979.07,11.6,67,15.44,0.0,1005.52,71.2
2019-09-22 08:30,53.60018,-98.9252833333333,8.1,9.6,318,979.10,11.7,67,15.43,0.0,1005.54,71.2
2019-09-22 08:40,53.6001766666667,-98.92527,8.1,10.1,317,979.19,11.9,64,15.42,0.0,1005.63,71.2
2019-09-22 08:50,53.6002083333333,-98.92522,7.3,8.9,308,979.31,11.8,66,15.41,0.0,1005.76,71.2
2019-09-22 09:00,53.6002233333333,-98.9251866666667,6.9,8.2,302,979.36,11.8,69,15.41,0.0,1005.83,60.8
2019-09-22 09:10,53.6003183333333,-98.9250566666667,7.9,9.3,285,979.40,11.5,74,15.41,0.0,1005.87,60.8
2019-09-22 09:20,53.6003666666667,-98.9250433333333,7.7,8.8,284,979.41,11.3,77,15.40,0.0,1005.90,60.8
2019-09-22 09:30,53.6003616666667,-98.9250383333333,7.4,8.5,280,979.47,11.3,78,15.39,0.0,1005.96,60.8
2019-09-22 09:40,53.6003466666667,-98.92504,7.2,8.6,275,979.52,11.3,85,15.38,0.0,1006.02,60.8
2019-09-22 09:50,53.600375,-98.92504,7.1,8.0,277,979.51,11.3,81,15.38,0.0,1006.02,60.8
2019-09-22 10:00,53.6003616666667,-98.9250433333333,7.0,8.0,277,979.55,11.4,78,15.37,0.0,1006.06,46.1
2019-09-22 10:10,53.6003583333333,-98.925045,6.3,7.3,278,979.61,11.5,78,15.37,0.0,1006.11,46.1
2019-09-22 10:20,53.600395,-98.925035,6.2,7.4,275,979.65,11.5,82,15.36,0.0,1006.14,46.1
2019-09-22 10:30,53.60038,-98.92504,6.6,7.5,273,979.67,11.3,86,15.35,0.0,1006.17,46.1
2019-09-22 10:40,53.6003816666667,-98.92504,6.8,7.3,271,979.64,11.3,86,15.34,0.0,1006.14,46.1
2019-09-22 10:50,53.6003833333333,-98.9250433333333,6.5,7.3,271,979.59,11.3,84,15.33,0.0,1006.09,46.1
2019-09-22 11:00,53.6003933333333,-98.9250416666667,6.6,7.4,267,979.52,11.3,81,15.33,0.0,1006.03,37.5
2019-09-22 11:10,53.6004466666667,-98.92504,6.4,7.4,269,979.45,11.2,83,15.33,0.0,1005.98,37.5
2019-09-22 11:20,53.60037,-98.925035,6.3,7.2,272,979.50,11.2,81,15.33,0.0,1006.02,37.5
2019-09-22 11:30,53.5992266666667,-98.9251983333333,6.3,9.1,272,979.50,11.3,80,15.32,0.4,1006.02,37.5
2019-09-22 11:40,53.5918366666667,-98.918785,5.8,7.4,239,979.48,11.5,79,15.34,3.0,1005.99,37.5
2019-09-22 11:50,53.5853166666667,-98.912425,5.5,6.8,236,979.50,11.6,76,15.40,2.7,1006.00,37.5
2019-09-22 12:00,53.5787933333333,-98.9060516666667,5.6,7.0,231,979.57,11.7,74,15.41,2.7,1006.06,152.1
2019-09-22 12:10,53.5597083333333,-98.8925266666667,9.1,13.3,204,979.52,11.7,74,15.38,7.5,1006.01,152.1
2019-09-22 12:20,53.531935,-98.87155,12.7,15.2,193,979.47,11.9,73,15.35,11.0,1005.96,152.1
2019-09-22 12:30,53.5048216666667,-98.8473533333333,12.9,14.5,189,979.43,12.1,72,15.42,11.0,1005.90,152.1
2019-09-22 12:40,53.4777616666667,-98.823315,13.3,14.7,190,979.44,12.6,68,15.47,11.0,1005.89,152.1
2019-09-22 12:50,53.45071,-98.79945,13.3,15.3,189,979.47,13.0,65,15.50,11.0,1005.90,152.1
2019-09-22 13:00,53.4383616666667,-98.7896733333333,9.5,14.8,207,979.67,13.4,63,15.51,4.9,1006.10,153.5
2019-09-22 13:10,53.4317716666667,-98.7841383333333,7.7,8.9,212,979.77,13.7,62,15.52,2.7,1006.19,153.5
2019-09-22 13:20,53.4253016666667,-98.7776433333333,6.3,7.6,209,979.78,13.8,60,15.52,2.7,1006.18,153.5
2019-09-22 13:30,53.418645,-98.772425,5.7,7.2,211,979.78,14.0,59,15.52,2.6,1006.16,153.5
2019-09-22 13:40,53.412675,-98.766785,5.8,8.5,214,979.88,14.1,59,15.52,2.5,1006.26,153.5
2019-09-22 13:50,53.4128483333333,-98.7666216666667,5.6,6.7,232,979.85,14.0,57,15.52,0.1,1006.23,153.5
2019-09-22 14:00,53.4128483333333,-98.766635,6.0,7.0,231,979.87,14.1,58,15.52,0.0,1006.25,153.3
2019-09-22 14:10,53.4052566666667,-98.7817066666667,10.6,18.5,236,979.69,14.1,59,15.52,4.2,1006.05,153.3
2019-09-22 14:20,53.3845616666667,-98.81908,18.2,19.5,236,979.36,14.0,62,15.52,10.9,1005.70,153.3
2019-09-22 14:30,53.3637966666667,-98.85617,18.3,20.4,233,979.40,14.0,63,15.54,10.9,1005.72,153.3
2019-09-22 14:40,53.3429383333333,-98.8930416666667,19.1,21.4,231,979.35,13.9,70,15.58,10.9,1005.66,153.3
2019-09-22 14:50,53.3217516666667,-98.9292316666667,19.7,21.4,227,979.31,13.7,72,15.61,10.9,1005.61,153.3
2019-09-22 15:00,53.3001833333333,-98.9646066666667,21.0,22.7,226,979.24,13.6,75,15.61,10.9,1005.53,187.2
2019-09-22 15:10,53.284855,-98.9875683333333,16.4,21.6,223,979.64,13.5,77,15.58,7.4,1005.94,187.2
2019-09-22 15:20,53.2807016666667,-98.9963583333333,11.6,13.0,223,980.08,13.5,79,15.56,2.4,1006.38,187.2
2019-09-22 15:30,53.2759033333333,-99.0044083333333,11.7,13.6,227,980.16,13.5,79,15.57,2.4,1006.46,187.2
2019-09-22 15:40,53.2709266666667,-99.0121533333333,11.6,13.6,232,980.20,13.4,81,15.57,2.4,1006.51,187.2
2019-09-22 15:50,53.26235,-99.0252083333333,13.5,19.6,235,980.15,13.5,82,15.53,4.2,1006.45,187.2
2019-09-22 16:00,53.262255,-99.0256416666667,7.8,12.0,234,980.44,13.7,81,15.46,0.1,1006.74,218.7
2019-09-22 16:10,53.2621966666667,-99.0256,8.0,9.4,245,980.37,14.0,82,15.45,0.0,1006.66,218.7
2019-09-22 16:20,53.262165,-99.0255083333333,8.7,11.6,255,980.41,14.4,79,15.46,0.0,1006.68,218.7
2019-09-22 16:30,53.261245,-99.0275383333333,9.4,14.5,250,980.43,14.6,76,15.47,0.5,1006.70,218.7
2019-09-22 16:40,53.251845,-99.074985,18.5,20.0,255,979.77,14.7,75,15.46,10.8,1006.02,218.7
2019-09-22 16:50,53.24171,-99.122135,19.0,20.3,253,979.70,15.0,70,15.45,10.8,1005.94,218.7
2019-09-22 17:00,53.2297233333333,-99.16806,18.2,19.5,252,979.63,15.4,68,15.58,10.8,1005.86,232.8
2019-09-22 17:10,53.2241033333333,-99.188465,11.5,19.5,253,980.00,15.8,63,15.75,4.8,1006.22,232.8
2019-09-22 17:20,53.2218716666667,-99.197735,10.6,13.6,250,980.04,16.1,59,15.89,2.2,1006.24,232.8
2019-09-22 17:30,53.2182016666667,-99.2051033333333,11.6,14.6,246,979.94,16.4,57,15.90,2.1,1006.14,232.8
2019-09-22 17:40,53.2141616666667,-99.2205133333333,12.3,20.3,243,979.80,16.5,55,15.91,3.6,1005.98,232.8
2019-09-22 17:50,53.2125083333333,-99.2334216666667,11.4,21.2,248,979.75,16.7,53,15.93,2.8,1005.91,232.8
2019-09-22 18:00,53.2125233333333,-99.2334466666667,7.6,10.8,240,979.87,16.9,52,15.97,0.0,1006.01,241.5
2019-09-22 18:10,53.21245,-99.2334066666667,8.1,12.1,250,979.80,16.9,51,15.99,0.0,1005.91,241.5
2019-09-22 18:20,53.2078566666667,-99.23975,11.6,23.5,243,979.65,17.0,50,16.01,2.1,1005.75,241.5
2019-09-22 18:30,53.1887966666667,-99.254745,14.6,22.1,239,979.50,17.2,49,15.96,7.6,1005.59,241.5
2019-09-22 18:40,53.1826916666667,-99.25457,10.3,16.5,225,979.67,17.6,45,15.98,2.2,1005.73,241.5
2019-09-22 18:50,53.1826716666667,-99.25449,8.2,12.5,210,979.70,17.7,45,16.04,0.0,1005.73,241.5
2019-09-22 19:00,53.1826483333333,-99.2544866666667,8.2,12.1,227,979.69,17.4,44,16.05,0.0,1005.72,239.9
2019-09-22 19:10,53.1826633333333,-99.2544866666667,8.3,13.2,222,979.68,17.4,44,16.06,0.0,1005.70,239.9
2019-09-22 19:20,53.1826666666667,-99.254485,7.8,11.4,204,979.65,17.7,44,16.08,0.0,1005.64,239.9
2019-09-22 19:30,53.1826633333333,-99.2544833333333,8.4,11.8,220,979.58,17.7,43,16.12,0.0,1005.56,239.9
2019-09-22 19:40,53.1826633333333,-99.254485,7.5,12.9,214,979.47,17.7,42,16.12,0.0,1005.44,239.9
2019-09-22 19:50,53.1826633333333,-99.2544866666667,8.0,12.9,223,979.37,17.8,40,16.15,0.0,1005.33,239.9
2019-09-22 20:00,53.1826616666667,-99.254485,7.8,11.0,226,979.31,17.9,38,16.17,0.0,1005.26,227.8
2019-09-22 20:10,53.1826616666667,-99.2544866666667,6.6,10.4,215,979.22,18.2,39,16.20,0.0,1005.15,227.8
2019-09-22 20:20,53.1826616666667,-99.2544866666667,7.6,11.6,216,979.13,18.3,39,16.20,0.0,1005.04,227.8
2019-09-22 20:30,53.1826616666667,-99.2544866666667,7.5,11.5,205,979.11,18.6,39,16.24,0.0,1004.99,227.8
2019-09-22 20:40,53.1826633333333,-99.2544866666667,7.3,11.0,208,979.09,18.7,38,16.23,0.0,1004.96,227.8
2019-09-22 20:50,53.1826633333333,-99.2544883333333,7.4,12.4,221,979.06,18.6,37,16.29,0.0,1004.94,227.8
2019-09-22 21:00,53.1826633333333,-99.2544866666667,7.9,11.5,226,979.03,18.7,35,16.32,0.0,1004.92,202.9
2019-09-22 21:10,53.1826633333333,-99.2544883333333,7.0,9.7,222,978.96,18.8,35,16.33,0.0,1004.83,202.9
2019-09-22 21:20,53.1826733333333,-99.2544866666667,6.3,10.2,229,978.98,19.0,34,16.38,0.0,1004.83,202.9
2019-09-22 21:30,53.1826616666667,-99.25448,5.9,10.4,213,978.97,19.2,34,16.37,0.0,1004.81,202.9
2019-09-22 21:40,53.1976816666667,-99.2524416666667,3.3,7.1,260,978.99,19.5,34,16.29,5.4,1004.82,202.9
2019-09-22 21:50,53.211235,-99.2123116666667,6.7,12.4,116,978.88,19.5,35,16.16,9.9,1004.70,202.9
2019-09-22 22:00,53.2089333333333,-99.1609983333333,8.7,14.1,119,978.77,18.7,43,16.18,11.1,1004.61,64.8
2019-09-22 22:10,53.2079633333333,-99.1099433333333,10.7,13.6,103,978.71,18.2,48,16.14,11.0,1004.57,64.8
2019-09-22 22:20,53.2077716666667,-99.0588633333333,11.5,13.5,125,978.70,18.0,52,16.19,11.0,1004.55,64.8
2019-09-22 22:30,53.2080666666667,-99.007875,12.2,14.9,118,978.63,17.5,60,16.25,11.0,1004.50,64.8
2019-09-22 22:40,53.2082716666667,-98.9569116666667,12.7,13.8,117,978.63,17.5,61,16.42,11.0,1004.51,64.8
2019-09-22 22:50,53.2087066666667,-98.90609,13.4,16.0,113,978.63,17.5,60,16.53,11.0,1004.50,64.8
2019-09-22 23:00,53.2077816666667,-98.8555316666667,18.0,19.0,105,978.47,16.9,69,16.55,10.9,1004.36,83.8
2019-09-22 23:10,53.2066916666667,-98.80523,18.8,20.5,105,978.43,16.7,68,16.57,10.9,1004.31,83.8
2019-09-22 23:20,53.2058916666667,-98.7551716666667,18.7,19.9,103,978.40,16.8,67,16.59,10.8,1004.27,83.8
2019-09-22 23:30,53.20508,-98.7052683333333,18.7,19.9,106,978.40,16.9,66,16.57,10.8,1004.25,83.8
2019-09-22 23:40,53.2048616666667,-98.6553716666667,18.5,19.8,122,978.47,16.8,71,16.49,10.8,1004.33,83.8
